Regional Weather Roundup
Issued by NWS

Home | Current Version | Previous Version | Text Only | Print | Product List | Glossary On
Versions: 1 2 3 4 5 6 7 8 9 10 11 12 13 14 15 16 17 18 19 20 21 22 23 24 25 26 27 28 29 30 31 32 33 34 35 36 37 38 39 40 41 42 43 44 45 46 47 48 49 50
000
ASUS43 KLOT 010510
RWRIL

ILLINOIS REGIONAL WEATHER ROUNDUP
NATIONAL WEATHER SERVICE CHICAGO/ROMEOVILLE IL
1200 AM CDT MON SEP 01 2014

NOTE: "FAIR" INDICATES FEW OR NO CLOUDS BELOW 12,000 FEET WITH NO
SIGNIFICANT WEATHER AND/OR OBSTRUCTIONS TO VISIBILITY.

* THESE STATIONS ARE NOT UNDER NWS QUALITY CONTROL. THEY ALSO MAY NOT
  REPORT WEATHER SUCH AS PRECIPITATION OR FOG.

ILZ001-002-007-009-015-016-024-010600-
NORTHWEST ILLINOIS

CITY           SKY/WX    TMP DP  RH WIND       PRES   REMARKS
MOLINE         CLOUDY    76  69  79 S13G20    29.81S
STERLING*      CLOUDY    73  70  88 S7        29.84R
SAVANNA*       CLOUDY    75  70  85 S10       29.81S
$$

ILZ003-004-008-010-011-017-018-010600-
NORTH CENTRAL ILLINOIS

CITY           SKY/WX    TMP DP  RH WIND       PRES   REMARKS
ROCKFORD       MOCLDY    72  69  90 S10       29.85S
FREEPORT*      CLOUDY    73  69  89 S15       29.85R
ROCHELLE*      MOCLDY    71  69  93 S7        29.86S
DE KALB*       MOCLDY    69  67  96 S8        29.88S FOG
PERU*          MOCLDY    73  69  88 S6        29.88R
$$

ILZ005-006-012>014-019>023-010600-
NORTHEAST ILLINOIS

CITY           SKY/WX    TMP DP  RH WIND       PRES   REMARKS
CHICAGO-OHARE  PTCLDY    74  67  78 S8        29.87F
CHICAGO-MIDWAY PTCLDY    77  71  82 S7        29.88S
AURORA         PTCLDY    72  68  87 S7        29.87F FOG
LANSING*         N/A    N/A N/A N/A MISG        N/A
JOLIET*        PTCLDY    73  69  87 S6        29.89S
WAUKEGAN       PTCLDY    74  68  81 S10       29.86S
DUPAGE AIRPORT CLEAR     73  70  90 S8        29.87F
KANKAKEE*      CLEAR     72  69  92 S6        29.91S
WHEELING       PTCLDY    76  70  82 S7        29.88S
MORRIS*        PTCLDY    72  72 100 S6        29.88S
ROMEOVILLE*    CLEAR     72  70  94 S8        29.88S
NORTHERLY ISL    N/A     76  68  76 S7          N/A
$$

LMZ740>746-010600-
SOUTHERN LAKE MICHIGAN

STATION/POSITION SKY/WX   TEMP    WIND        PRES    VSBY  WAVE
                          AIR SEA DIR/SP/G                  HT/PER
                          (F)     (DEG/KT/KT) (MB)    (MI)  (FT/S)
SOUTHERN BUOY              73 70  180/ 12/ 14 1011.4R         1/ 3
WAUKEGAN HARBOR            71     200/ 13/ 14   N/A
HARRISON CRIB              75     180/ 16/ 17   N/A
BURNHAM HARBOR             76     170/  6/  8   N/A
CALUMET HARBOR             75     170/  5/  7 1010.9F
MICHIGAN CITY              74     140/  7/  9   N/A
MICHIGAN CITY 6N           73 73  170/  8/ 10   N/A           1
ST. JOSEPH                 74 74  160/ 10/ 12   N/A           1/ 2
$$

ILZ025>027-034>036-040-047-049-050-058-095>099-010600-
WEST-CENTRAL ILLINOIS

CITY           SKY/WX    TMP DP  RH WIND       PRES   REMARKS
QUINCY         CLOUDY    76  70  82 S12       29.83S
GALESBURG*     MOCLDY    72  70  93 SE6       29.84S
MACOMB*        MOCLDY    73  71  95 S8        29.85F
JACKSONVILLE*  CLEAR     76  72  86 S8        29.88R
PITTSFIELD*    PTCLDY    74  70  86 SE6       29.86S
$$

ILZ028>032-037-038-041>044-048-051>054-059>061-010600-
CENTRAL ILLINOIS

CITY           SKY/WX    TMP DP  RH WIND       PRES   REMARKS
PONTIAC        PTCLDY    73  72  94 S8        29.89R
DECATUR        CLEAR     74  71  91 S9        29.91F
PEORIA         MOCLDY    76  70  82 S9        29.87R
LACON*         MOCLDY    73  69  87 S6        29.86R
LINCOLN*       PTCLDY    74  71  89 S7        29.86S
SPRINGFIELD    PTCLDY    75  71  87 S9        29.88S
TAYLORVILLE    PTCLDY    72  70  94 S8        29.89F
$$

ILZ033-039-045-046-055>057-062-063-010600-
EAST-CENTRAL ILLINOIS

CITY           SKY/WX    TMP DP  RH WIND       PRES   REMARKS
CHAMPAIGN      CLEAR     73  71  93 S6        29.93F
DANVILLE*      PTCLDY    72  71  95 S7        29.92S
RANTOUL*       CLEAR     73  69  88 S6        29.94S
MATTOON        CLEAR     74  71  91 S8        29.93S
PARIS*         MOCLDY    72  71  98 SE5       29.95S
$$

ILZ079-100>102-010600-
SOUTHWEST ILLINOIS

CITY           SKY/WX    TMP DP  RH WIND       PRES   REMARKS
BELLEVILLE     CLEAR     75  74  99 E6        29.89F
CAHOKIA*       CLEAR     76  72  87 S5        29.88F
SPARTA*        CLEAR     75  72  89 S8        29.92F
$$

ILZ064>066-069>071-074>076-080>082-084>086-088>090-092>094-010600-
SOUTH-CENTRAL ILLINOIS

CITY           SKY/WX    TMP DP  RH WIND       PRES   REMARKS
CARBONDALE     CLEAR     76  71  85 S9        29.94R
CAIRO*         PTCLDY    78  73  83 S7        29.96R HX  81
EFFINGHAM*     CLEAR     74  69  86 SE6       29.93F
MARION         CLEAR     77  73  88 S9        29.95S
MT. VERNON     CLEAR     73  68  83 S6        29.94S
CENTRALIA*     CLEAR     73  70  88 S9        29.92F
SALEM*         CLEAR     77  73  88 S8        29.93F
METROPOLIS*    PTCLDY    76  74  92 S5        29.96S
$$

ILZ067-068-072-073-078-083-087-091-010600-
SOUTHEAST ILLINOIS

CITY           SKY/WX    TMP DP  RH WIND       PRES   REMARKS
LAWRENCEVILLE  MOCLDY    73  72  96 S6        29.96R
FLORA*         CLEAR     72  71  95 S6        29.94F
FAIRFIELD*     CLEAR     73  73 100 S3        29.94S
HARRISBURG*    CLEAR     73  72  96 CALM      29.96S
ROBINSON*      CLEAR     73  72  96 S6        29.96S
CARMI*         CLEAR     72  71  98 SE6       29.95S
$$

ABBREVIATIONS USED IN REMARKS
   TC - TEMPERATURE IN CELSIUS
  WCI - WIND CHILL INDEX
   HX - HEAT INDEX
  VSB - VISIBILITY
$$




USA.gov is the U.S. government's official web portal to all federal, state and local government web resources and services.